utc_time,unix_time,temp,cond,salinity,tds,chla_rfu,chla_ugl,bga_rfu,bga_ugl,odo,sat,nitrate_um,nitrogen_mg,stage,area,discharge,total_discharge
2021-12-01 00:00:02+00:00,1638316802,14.6,,,,,,,,,,73.79,1.03353333333333,,1.5136,0.0028,0.0056
2021-12-01 00:20:02+00:00,1638318002,14.54,,,,,,,,,,80.4833333333333,1.12733333333333,,1.5152,0.0567,0.1134
2021-12-01 00:40:02+00:00,1638319202,14.69,,,,,,,,,,86.91,1.21736666666667,,1.5168,0,0
2021-12-01 01:00:01+00:00,1638320401,14.87,,,,,,,,,,83.3433333333333,1.16733333333333,,1.52,0.0113,0.0226
2021-12-01 01:20:02+00:00,1638321602,15.02,,,,,,,,,,93.7533333333333,1.31316666666667,,1.5232,0.0314,0.0628
2021-12-01 01:40:02+00:00,1638322802,14.86,,,,,,,,,,90.2933333333333,1.2647,,1.5232,0.0185,0.037
2021-12-01 02:00:01+00:00,1638324001,15,,,,,,,,,,95.9433333333333,1.34383333333333,,1.5248,0.0285,0.057
2021-12-01 02:20:02+00:00,1638325202,14.97,,,,,,,,,,96.3666666666667,1.34976666666667,,1.5296,0.0215,0.043
2021-12-01 02:40:02+00:00,1638326402,15,,,,,,,,,,96.01,1.34476666666667,,1.5312,0.0315,0.063
2021-12-01 03:00:02+00:00,1638327602,14.97,,,,,,,,,,95.51,1.33773333333333,,1.5328,0.0344,0.0688
2021-12-01 03:40:01+00:00,1638330001,14.81,,,,,,,,,,82.5033333333333,1.1556,,1.5328,0.0459,0.0918
2021-12-01 04:00:01+00:00,1638331201,14.83,,,,,,,,,,91.5533333333333,1.28236666666667,,1.5328,0.0502,0.1004
2021-12-01 04:20:01+00:00,1638332401,14.63,,,,,,,,,,95.9033333333334,1.34333333333333,,1.5328,0.0273,0.0546
2021-12-01 04:40:01+00:00,1638333601,14.56,,,,,,,,,,94.58,1.32476666666667,,1.5328,0.0531,0.1062
2021-12-01 05:00:02+00:00,1638334802,14.49,,,,,,,,,,95.5433333333333,1.3383,,1.5328,0.0143,0.0286
2021-12-01 05:20:02+00:00,1638336002,14.52,,,,,,,,,,92.8033333333333,1.29986666666667,,1.536,0.0129,0.0258
2021-12-01 05:40:01+00:00,1638337201,14.36,,,,,,,,,,94.06,1.3175,,1.536,0.0763,0.1526
2021-12-01 06:00:02+00:00,1638338402,14.32,,,,,,,,,,91.8533333333333,1.2866,,1.5344,0.0561,0.1122
2021-12-01 06:20:02+00:00,1638339602,14.3,,,,,,,,,,86.0733333333333,1.20556666666667,,1.5328,0.0086,0.0172
2021-12-01 06:40:02+00:00,1638340802,14.23,,,,,,,,,,88.9433333333333,1.24576666666667,,1.5328,0.0344,0.0688
2021-12-01 07:00:01+00:00,1638342001,14.3,,,,,,,,,,87.6433333333333,1.2276,,1.536,0.0158,0.0316
2021-12-01 07:20:01+00:00,1638343201,14.25,,,,,,,,,,87.47,1.22513333333333,,1.536,0.059,0.118
2021-12-01 07:40:01+00:00,1638344401,14.06,,,,,,,,,,79.15,1.10863333333333,,1.5328,0.0316,0.0632
2021-12-01 08:00:02+00:00,1638345602,14.04,,,,,,,,,,79.65,1.11563333333333,,1.536,0.0129,0.0258
2021-12-01 08:20:01+00:00,1638346801,13.89,,,,,,,,,,77.1133333333333,1.08013333333333,,1.5344,0.0215,0.043
2021-12-01 08:40:02+00:00,1638348002,13.83,,,,,,,,,,79,1.1065,,1.5344,0.023,0.046
2021-12-01 09:00:01+00:00,1638349201,13.79,,,,,,,,,,84.1666666666667,1.17893333333333,,1.536,0.0273,0.0546
2021-12-01 09:20:02+00:00,1638350402,13.68,,,,,,,,,,82.1866666666667,1.15116666666667,,1.5344,0.0316,0.0632
2021-12-01 09:40:01+00:00,1638351601,13.68,,,,,,,,,,78.78,1.10343333333333,,1.5344,-0.0086,-0.0172
2021-12-01 10:00:01+00:00,1638352801,13.61,,,,,,,,,,77.3166666666667,1.08296666666667,,1.5344,0.0071,0.0142
2021-12-01 10:20:01+00:00,1638354001,13.51,,,,,,,,,,78.1733333333333,1.0949,,1.536,0.0057,0.0114
2021-12-01 10:40:01+00:00,1638355201,13.51,,,,,,,,,,75.82,1.06196666666667,,1.5376,0.0302,0.0604
2021-12-01 11:00:02+00:00,1638356402,13.47,,,,,,,,,,74.57,1.0445,,1.5424,0.0159,0.0318
2021-12-01 11:20:01+00:00,1638357601,13.43,,,,,,,,,,70.45,0.986766666666667,,1.5408,-0.0086,-0.0172
2021-12-01 11:40:01+00:00,1638358801,13.34,,,,,,,,,,70.5366666666667,0.988,,1.5408,0.0346,0.0692
2021-12-01 12:20:01+00:00,1638361201,13.08,,,,,,,,,,69.27,0.970233333333333,,1.544,0.0477,0.0954
2021-12-01 12:40:01+00:00,1638362401,12.94,,,,,,,,,,61.19,0.857033333333333,,1.5456,0.0681,0.1362
2021-12-01 13:00:02+00:00,1638363602,12.88,,,,,,,,,,64.09,0.8977,,1.5472,0.0522,0.1044
2021-12-01 13:20:01+00:00,1638364801,12.8,,,,,,,,,,68.03,0.9529,,1.5472,0.0957,0.1914
2021-12-01 13:40:01+00:00,1638366001,12.67,,,,,,,,,,72.5566666666667,1.0163,,1.5488,0.0537,0.1074
2021-12-01 14:00:02+00:00,1638367202,12.59,,,,,,,,,,76.04,1.0651,,1.5536,0.0728,0.1456
2021-12-01 14:20:01+00:00,1638368401,12.48,,,,,,,,,,79.1466666666667,1.1086,,1.5584,0.0745,0.149
2021-12-01 14:40:01+00:00,1638369601,12.39,,,,,,,,,,77.2933333333333,1.08263333333333,,1.5616,0.0644,0.1288
2021-12-01 15:00:02+00:00,1638370802,12.31,,,,,,,,,,79.3366666666667,1.11126666666667,,1.5616,0.0893,0.1786
2021-12-01 15:20:01+00:00,1638372001,12.25,,,,,,,,,,81.05,1.13523333333333,,1.5616,0.1172,0.2344
2021-12-01 15:40:01+00:00,1638373201,12.18,,,,,,,,,,87.2366666666667,1.22186666666667,,1.5648,0.1071,0.2142
2021-12-01 16:00:02+00:00,1638374402,12.02,,,,,,,,,,87.04,1.21916666666667,,1.5664,0.1102,0.2204
2021-12-01 16:20:02+00:00,1638375602,11.99,,,,,,,,,,89.8333333333333,1.25826666666667,,1.5695,0.0721,0.1442
2021-12-01 16:40:02+00:00,1638376802,11.98,,,,,,,,,,93.2933333333333,1.30673333333333,,1.5712,0.1445,0.289
2021-12-01 17:00:01+00:00,1638378001,12.02,,,,,,,,,,95.88,1.34296666666667,,1.5712,0.0693,0.1386
2021-12-01 17:20:02+00:00,1638379202,12.07,,,,,,,,,,98.2466666666667,1.37613333333333,,1.576,0.0636,0.1272
2021-12-01 17:40:01+00:00,1638380401,12.18,,,,,,,,,,97.09,1.35986666666667,,1.576,0.0798,0.1596
2021-12-01 18:00:02+00:00,1638381602,12.31,,,,,,,,,,95.0733333333333,1.33166666666667,,1.5824,0.0089,0.0178
2021-12-01 18:20:02+00:00,1638382802,12.41,,,,,,,,,,103.756666666667,1.45326666666667,,1.5872,0.0476,0.0952
2021-12-01 18:40:01+00:00,1638384001,12.49,,,,,,,,,,100.07,1.40163333333333,,1.5856,0.0714,0.1428
2021-12-01 19:00:02+00:00,1638385202,12.77,,,,,,,,,,103.64,1.4517,,1.5872,-0.0059,-0.0118
2021-12-01 19:20:01+00:00,1638386401,12.91,,,,,,,,,,101.64,1.4236,,1.5856,0.0238,0.0476
2021-12-01 19:40:01+00:00,1638387601,13.08,,,,,,,,,,99.7566666666667,1.3973,,1.5808,0.0667,0.1334
2021-12-01 20:00:02+00:00,1638388802,13.27,,,,,,,,,,100.416666666667,1.40653333333333,,1.5728,0.0531,0.1062
2021-12-01 20:20:02+00:00,1638390002,13.49,,,,,,,,,,102.176666666667,1.4312,,1.5695,0.0147,0.0294
2021-12-01 20:40:01+00:00,1638391201,13.4,,,,,,,,,,109.286666666667,1.53076666666667,,1.5695,0.0383,0.0766
2021-12-01 21:00:01+00:00,1638392401,14.48,,,,,,,,,,90.2733333333333,1.26446666666667,,1.5344,-0.3797,-0.7594
2021-12-01 21:20:02+00:00,1638393602,15.05,,,,,,,,,,84.2966666666667,1.1807,,1.496,-0.5394,-1.0788
2021-12-01 21:40:02+00:00,1638394802,15.24,,,,,,,,,,77.1566666666667,1.08073333333333,,1.4592,-0.6525,-1.305
2021-12-01 22:00:01+00:00,1638396001,15.41,,,,,,,,,,65.7033333333333,0.920266666666666,,1.4368,-0.6541,-1.3082
2021-12-01 22:20:02+00:00,1638397202,15.54,,,,,,,,,,59.3866666666667,0.8318,,1.4176,-0.6675,-1.335
2021-12-01 22:40:02+00:00,1638398402,15.66,,,,,,,,,,55.61,0.7789,,1.3984,-0.6319,-1.2638
2021-12-01 23:00:01+00:00,1638399601,15.78,,,,,,,,,,54.2566666666667,0.7599,,1.3888,-0.5898,-1.1796
2021-12-01 23:20:02+00:00,1638400802,15.9,,,,,,,,,,53.3766666666667,0.747666666666666,,1.384,-0.5192,-1.0384
2021-12-01 23:40:02+00:00,1638402002,16,,,,,,,,,,53.2833333333333,0.746333333333333,,1.408,-0.3313,-0.6626
2021-12-02 00:00:02+00:00,1638403202,16.09,,,,,,,,,,54.27,0.760133333333333,,1.4431,-0.1362,-0.2724
2021-12-02 00:20:01+00:00,1638404401,16.11,,,,,,,,,,55.7533333333333,0.780966666666667,,1.4624,-0.0396,-0.0792
2021-12-02 00:40:02+00:00,1638405602,15.98,,,,,,,,,,58.57,0.820433333333333,,1.4752,-0.022,-0.044
2021-12-02 01:00:01+00:00,1638406801,15.87,,,,,,,,,,63.6633333333333,0.8917,,1.4768,0.0193,0.0386
2021-12-02 01:20:02+00:00,1638408002,15.67,,,,,,,,,,63.47,0.889,,1.4752,0.0358,0.0716
2021-12-02 01:40:01+00:00,1638409201,15.54,,,,,,,,,,60.6133333333333,0.848966666666667,,1.4768,0.04,0.08
2021-12-02 02:00:01+00:00,1638410401,15.46,,,,,,,,,,59.4633333333333,0.8329,,1.4768,0.0069,0.0138
2021-12-02 02:20:02+00:00,1638411602,15.38,,,,,,,,,,61.65,0.863533333333333,,1.48,0.0443,0.0886
2021-12-02 02:40:02+00:00,1638412802,15.31,,,,,,,,,,60.0433333333333,0.841,,1.48,0.029,0.058
2021-12-02 03:00:02+00:00,1638414002,15.23,,,,,,,,,,62.39,0.8739,,1.48,0.0277,0.0554
2021-12-02 03:20:02+00:00,1638415202,15.16,,,,,,,,,,64.0033333333333,0.896433333333333,,1.4816,0.0388,0.0776
2021-12-02 03:40:01+00:00,1638416401,15.02,,,,,,,,,,66.21,0.9274,,1.4832,0.0555,0.111
2021-12-02 04:00:01+00:00,1638417601,14.94,,,,,,,,,,59.5733333333333,0.8344,,1.4864,0.0389,0.0778
2021-12-02 04:20:01+00:00,1638418801,14.83,,,,,,,,,,59.8466666666667,0.838266666666667,,1.4896,0.0153,0.0306
2021-12-02 04:40:02+00:00,1638420002,14.71,,,,,,,,,,61.86,0.866433333333333,,1.4912,0.0628,0.1256
2021-12-02 05:00:01+00:00,1638421201,14.74,,,,,,,,,,63.7766666666667,0.893333333333333,,1.4912,0.0125,0.025
2021-12-02 05:20:01+00:00,1638422401,14.66,,,,,,,,,,67.5366666666667,0.945933333333333,,1.4928,0.0559,0.1118
2021-12-02 05:40:02+00:00,1638423602,14.57,,,,,,,,,,62.0233333333333,0.868733333333333,,1.4928,0.074,0.148
2021-12-02 06:00:01+00:00,1638424801,14.54,,,,,,,,,,64.6566666666667,0.905666666666667,,1.4928,0.0712,0.1424
2021-12-02 06:20:01+00:00,1638426001,14.45,,,,,,,,,,66.0033333333333,0.924466666666667,,1.4928,0.0321,0.0642
2021-12-02 06:40:01+00:00,1638427201,14.35,,,,,,,,,,65.11,0.912,,1.4928,0.0237,0.0474
2021-12-02 07:00:01+00:00,1638428401,14.32,,,,,,,,,,59.6566666666667,0.8356,,1.4928,0.0349,0.0698
2021-12-02 07:20:02+00:00,1638429602,14.25,,,,,,,,,,60.8733333333333,0.852666666666666,,1.4944,0.0489,0.0978
2021-12-02 07:40:01+00:00,1638430801,14.19,,,,,,,,,,59.2633333333333,0.830066666666667,,1.4944,0.0265,0.053
2021-12-02 08:00:01+00:00,1638432001,14.12,,,,,,,,,,58.9866666666667,0.826166666666667,,1.4944,0.0251,0.0502
2021-12-02 08:20:02+00:00,1638433202,14.03,,,,,,,,,,57.3033333333333,0.802633333333333,,1.4944,0.0223,0.0446
2021-12-02 08:40:01+00:00,1638434401,13.92,,,,,,,,,,56.42,0.7903,,1.4944,0.0139,0.0278
2021-12-02 09:00:01+00:00,1638435601,13.8,,,,,,,,,,57.14,0.800366666666667,,1.496,0.0042,0.0084
2021-12-02 09:20:02+00:00,1638436802,13.71,,,,,,,,,,59.5566666666667,0.834166666666667,,1.4944,0.0097,0.0194
2021-12-02 09:40:02+00:00,1638438002,13.66,,,,,,,,,,58.8966666666667,0.825033333333333,,1.4976,-0.0056,-0.0112
2021-12-02 10:00:01+00:00,1638439201,13.63,,,,,,,,,,58.8633333333333,0.8245,,1.496,0.0294,0.0588
2021-12-02 10:20:02+00:00,1638440402,13.55,,,,,,,,,,58.97,0.825966666666667,,1.4976,0.0378,0.0756
2021-12-02 10:40:01+00:00,1638441601,13.46,,,,,,,,,,59.92,0.8393,,1.4976,-0.0084,-0.0168
2021-12-02 11:00:01+00:00,1638442801,13.28,,,,,,,,,,58.79,0.823433333333333,,1.5008,0.0253,0.0506
2021-12-02 11:20:02+00:00,1638444002,13.11,,,,,,,,,,60.1766666666667,0.842866666666667,,1.5008,0.0365,0.073
2021-12-02 11:40:01+00:00,1638445201,12.98,,,,,,,,,,61.37,0.859533333333333,,1.5024,0.0197,0.0394
2021-12-02 12:00:02+00:00,1638446402,12.87,,,,,,,,,,59.8666666666667,0.838566666666666,,1.5024,0.0548,0.1096
2021-12-02 12:20:02+00:00,1638447602,12.78,,,,,,,,,,60.2066666666667,0.8433,,1.5024,0.0014,0.0028
2021-12-02 12:40:01+00:00,1638448801,12.7,,,,,,,,,,60.6733333333333,0.849833333333333,,1.5056,0.0634,0.1268
2021-12-02 13:00:01+00:00,1638450001,12.54,,,,,,,,,,60.0466666666667,0.841,,1.5056,0.0761,0.1522
2021-12-02 13:20:01+00:00,1638451201,12.39,,,,,,,,,,56.3066666666667,0.788733333333333,,1.5056,0.1057,0.2114
2021-12-02 13:40:01+00:00,1638452401,12.32,,,,,,,,,,59.5833333333333,0.834566666666666,,1.5072,0.0621,0.1242
2021-12-02 14:00:01+00:00,1638453601,12.21,,,,,,,,,,61.3033333333333,0.858633333333333,,1.5088,0.0834,0.1668
2021-12-02 14:20:01+00:00,1638454801,12.11,,,,,,,,,,61.5,0.861433333333333,,1.5104,0.0679,0.1358
2021-12-02 14:40:02+00:00,1638456002,12,,,,,,,,,,59.7233333333333,0.836533333333333,,1.5136,0.0851,0.1702
2021-12-02 15:00:02+00:00,1638457202,11.91,,,,,,,,,,65.1533333333333,0.912566666666667,,1.52,0.047,0.094
2021-12-02 15:20:01+00:00,1638458401,11.82,,,,,,,,,,71.16,0.996733333333333,,1.5216,0.1041,0.2082
2021-12-02 15:40:02+00:00,1638459602,11.8,,,,,,,,,,67.0133333333333,0.938633333333333,,1.5248,0.1071,0.2142
2021-12-02 16:00:01+00:00,1638460801,11.66,,,,,,,,,,69.85,0.978366666666667,,1.5264,0.1101,0.2202
2021-12-02 16:20:01+00:00,1638462001,11.65,,,,,,,,,,77.3966666666667,1.08406666666667,,1.528,0.1059,0.2118
2021-12-02 16:40:02+00:00,1638463202,11.65,,,,,,,,,,77.5233333333333,1.08586666666667,,1.5376,0.0836,0.1672
2021-12-02 17:00:01+00:00,1638464401,11.62,,,,,,,,,,83.49,1.16936666666667,,1.5376,0.1153,0.2306
2021-12-02 17:20:02+00:00,1638465602,11.68,,,,,,,,,,85.35,1.19546666666667,,1.5392,0.1111,0.2222
2021-12-02 17:40:01+00:00,1638466801,11.81,,,,,,,,,,84.3533333333333,1.18153333333333,,1.5392,0.101,0.202
2021-12-02 18:00:01+00:00,1638468001,11.96,,,,,,,,,,84.6133333333333,1.18513333333333,,1.536,0.1152,0.2304
2021-12-02 18:20:02+00:00,1638469202,12.11,,,,,,,,,,85.7566666666667,1.2012,,1.528,0.0931,0.1862
2021-12-02 18:40:01+00:00,1638470401,12.26,,,,,,,,,,93.2133333333333,1.30563333333333,,1.5248,0.14,0.28
2021-12-02 19:00:01+00:00,1638471601,12.54,,,,,,,,,,89.3333333333333,1.25123333333333,,1.52,0.027,0.054
2021-12-02 19:20:02+00:00,1638472802,12.8,,,,,,,,,,89.0066666666667,1.2467,,1.5216,0.0042,0.0084
2021-12-02 19:40:02+00:00,1638474002,12.84,,,,,,,,,,97.91,1.3714,,1.5264,0.0028,0.0056
2021-12-02 20:00:01+00:00,1638475201,12.87,,,,,,,,,,94.69,1.32633333333333,,1.528,0,0
2021-12-02 20:20:01+00:00,1638476401,12.9,,,,,,,,,,92.11,1.29016666666667,,1.5264,0.0257,0.0514
2021-12-02 20:40:02+00:00,1638477602,12.94,,,,,,,,,,93.3133333333333,1.30703333333333,,1.5264,0.0143,0.0286
2021-12-02 21:00:02+00:00,1638478802,13.07,,,,,,,,,,96.41,1.3504,,1.5264,0,0
2021-12-02 21:20:01+00:00,1638480001,13.29,,,,,,,,,,81.8166666666667,1.146,,1.4768,-0.4686,-0.9372
2021-12-02 21:40:02+00:00,1638481202,13.5,,,,,,,,,,70.66,0.989733333333333,,1.4336,-0.6164,-1.2328
2021-12-02 22:00:02+00:00,1638482402,13.58,,,,,,,,,,62.4966666666667,0.8754,,1.408,-0.6417,-1.2834
2021-12-02 22:20:01+00:00,1638483601,13.65,,,,,,,,,,56.4533333333333,0.7907,,1.3872,-0.6033,-1.2066
2021-12-02 22:40:01+00:00,1638484801,13.78,,,,,,,,,,52.7166666666667,0.7384,,1.3728,-0.5801,-1.1602
2021-12-02 23:00:02+00:00,1638486002,13.89,,,,,,,,,,51.1533333333333,0.716533333333333,,1.3568,-0.6085,-1.217
2021-12-02 23:20:01+00:00,1638487201,14.02,,,,,,,,,,50.2533333333333,0.703866666666667,,1.3408,-0.536,-1.072
2021-12-02 23:40:01+00:00,1638488401,14.16,,,,,,,,,,,,,1.3344,-0.5855,-1.171
2021-12-03 00:00:01+00:00,1638489601,14.29,,,,,,,,,,,,,1.3216,-0.5464,-1.0928
2021-12-03 00:20:01+00:00,1638490801,14.37,,,,,,,,,,51.6933333333333,0.724066666666667,,1.3104,-0.522,-1.044
2021-12-03 00:40:02+00:00,1638492002,14.38,,,,,,,,,,52.01,0.7285,,1.3008,-0.5386,-1.0772
2021-12-03 01:00:01+00:00,1638493201,14.36,,,,,,,,,,51.5,0.7214,,1.3167,-0.3543,-0.7086
2021-12-03 01:20:02+00:00,1638494402,14.33,,,,,,,,,,55.46,0.776866666666667,,1.36,-0.0887,-0.1774
2021-12-03 01:40:02+00:00,1638495602,14.29,,,,,,,,,,55.59,0.7786,,1.3792,-0.0617,-0.1234
2021-12-03 02:00:02+00:00,1638496802,14.18,,,,,,,,,,55.5133333333333,0.7775,,1.3952,-0.039,-0.078
2021-12-03 02:20:02+00:00,1638498002,14.05,,,,,,,,,,55.6866666666667,0.78,,1.4016,-0.0261,-0.0522
2021-12-03 02:40:01+00:00,1638499201,13.98,,,,,,,,,,56.9333333333333,0.7975,,1.4096,0.0302,0.0604
2021-12-03 03:00:01+00:00,1638500401,13.96,,,,,,,,,,58.66,0.8217,,1.4128,0.0158,0.0316
2021-12-03 03:20:02+00:00,1638501602,13.9,,,,,,,,,,57.9366666666667,0.811466666666667,,1.4128,0.0448,0.0896
2021-12-03 03:40:02+00:00,1638502802,14.05,,,,,,,,,,58.13,0.814166666666666,,1.4143,0.0092,0.0184
2021-12-03 04:00:02+00:00,1638504002,14.08,,,,,,,,,,58.6233333333333,0.821133333333333,,1.416,0.0304,0.0608
2021-12-03 04:20:01+00:00,1638505201,13.84,,,,,,,,,,55.6633333333333,0.7796,,1.416,0.0674,0.1348
2021-12-03 04:40:01+00:00,1638506401,13.73,,,,,,,,,,54.8533333333333,0.7683,,1.416,0.0449,0.0898
2021-12-03 05:00:01+00:00,1638507601,13.67,,,,,,,,,,54.5566666666667,0.764133333333333,,1.416,0.0648,0.1296
2021-12-03 05:20:01+00:00,1638508801,13.66,,,,,,,,,,55.17,0.772733333333333,,1.4176,0.0105,0.021
2021-12-03 05:40:02+00:00,1638510002,13.65,,,,,,,,,,54.56,0.764166666666667,,1.4176,0.0291,0.0582
2021-12-03 06:00:02+00:00,1638511202,13.57,,,,,,,,,,56.0533333333333,0.785133333333333,,1.4192,0.0742,0.1484
2021-12-03 06:20:01+00:00,1638512401,13.59,,,,,,,,,,54.4433333333333,0.7626,,1.4208,0.0185,0.037
2021-12-03 06:40:01+00:00,1638513601,13.57,,,,,,,,,,55.6733333333333,0.7798,,1.4272,0.0533,0.1066
2021-12-03 07:00:02+00:00,1638514802,13.55,,,,,,,,,,58.91,0.8251,,1.4287,0.0373,0.0746
2021-12-03 07:20:01+00:00,1638516001,13.64,,,,,,,,,,59.7733333333333,0.8372,,1.4304,0.0467,0.0934
2021-12-03 07:40:01+00:00,1638517201,13.85,,,,,,,,,,60.04,0.840933333333333,,1.4304,0.024,0.048
2021-12-03 08:00:01+00:00,1638518401,13.9,,,,,,,,,,63.32,0.8869,,1.432,0.0307,0.0614
2021-12-03 08:20:01+00:00,1638519601,13.88,,,,,,,,,,60.5333333333333,0.847866666666667,,1.4336,0.0201,0.0402
2021-12-03 08:40:01+00:00,1638520801,13.85,,,,,,,,,,60.9133333333333,0.853166666666667,,1.4336,0.0147,0.0294
2021-12-03 09:00:01+00:00,1638522001,13.82,,,,,,,,,,60.78,0.8513,,1.4352,0.0402,0.0804
2021-12-03 09:20:02+00:00,1638523202,13.78,,,,,,,,,,56.9266666666667,0.797366666666667,,1.4352,0.0187,0.0374
2021-12-03 09:40:02+00:00,1638524402,13.75,,,,,,,,,,60.3333333333333,0.845066666666667,,1.4352,0.0415,0.083
2021-12-03 10:00:01+00:00,1638525601,13.73,,,,,,,,,,58.8666666666667,0.824533333333333,,1.4368,0,0
2021-12-03 10:20:02+00:00,1638526802,13.7,,,,,,,,,,58.6366666666667,0.821266666666667,,1.4368,0.0214,0.0428
2021-12-03 10:40:02+00:00,1638528002,13.71,,,,,,,,,,57.7933333333333,0.8095,,1.4368,0.0147,0.0294
2021-12-03 11:00:01+00:00,1638529201,13.66,,,,,,,,,,59.18,0.8289,,1.4368,0.0443,0.0886
2021-12-03 11:20:02+00:00,1638530402,13.64,,,,,,,,,,60.3166666666667,0.8448,,1.4368,0.0456,0.0912
2021-12-03 11:40:01+00:00,1638531601,13.56,,,,,,,,,,59.2,0.829133333333333,,1.4368,0.0174,0.0348
2021-12-03 12:00:01+00:00,1638532801,13.51,,,,,,,,,,59.84,0.8381,,1.4384,0.0349,0.0698
2021-12-03 12:40:01+00:00,1638535201,13.43,,,,,,,,,,59.8333333333333,0.838066666666667,,1.44,0.0026,0.0052
2021-12-03 13:00:02+00:00,1638536402,13.46,,,,,,,,,,58.9533333333333,0.8257,,1.44,0.0592,0.1184
2021-12-03 13:20:01+00:00,1638537601,13.54,,,,,,,,,,58.7066666666667,0.8223,,1.4464,0.0297,0.0594
2021-12-03 13:40:02+00:00,1638538802,13.55,,,,,,,,,,59.94,0.839566666666667,,1.448,0.065,0.13
2021-12-03 14:00:02+00:00,1638540002,13.58,,,,,,,,,,59.8466666666667,0.8383,,1.4512,0.0719,0.1438
2021-12-03 14:20:01+00:00,1638541201,13.54,,,,,,,,,,58.46,0.818766666666667,,1.4528,0.1032,0.2064
2021-12-03 14:40:01+00:00,1638542401,13.51,,,,,,,,,,61.7433333333333,0.864833333333333,,1.4544,0.0612,0.1224
2021-12-03 15:00:01+00:00,1638543601,13.44,,,,,,,,,,72.8433333333333,1.0203,,1.456,0.0926,0.1852
2021-12-03 15:20:02+00:00,1638544802,13.33,,,,,,,,,,75.7233333333333,1.06066666666667,,1.4592,0.1037,0.2074
2021-12-03 15:40:02+00:00,1638546002,13.28,,,,,,,,,,75.3333333333333,1.05516666666667,,1.4656,0.111,0.222
2021-12-03 16:00:01+00:00,1638547201,13.11,,,,,,,,,,72.92,1.02136666666667,,1.4672,0.1043,0.2086
2021-12-03 16:20:02+00:00,1638548402,12.98,,,,,,,,,,77.3433333333333,1.0833,,1.4688,0.0934,0.1868
2021-12-03 16:40:02+00:00,1638549602,12.97,,,,,,,,,,80.5533333333333,1.1283,,1.472,0.095,0.19
2021-12-03 17:00:02+00:00,1638550802,12.96,,,,,,,,,,84.3066666666667,1.18086666666667,,1.4752,0.1201,0.2402
2021-12-03 17:20:01+00:00,1638552001,12.92,,,,,,,,,,83.8866666666667,1.175,,1.48,0.0942,0.1884
2021-12-03 17:40:01+00:00,1638553201,12.96,,,,,,,,,,84.8966666666667,1.18913333333333,,1.4816,0.1317,0.2634
2021-12-03 18:00:02+00:00,1638554402,12.99,,,,,,,,,,86.19,1.20726666666667,,1.4816,0.097,0.194
2021-12-03 18:20:02+00:00,1638555602,13.04,,,,,,,,,,84.0766666666667,1.17756666666667,,1.4832,0.118,0.236
2021-12-03 18:40:01+00:00,1638556801,13.08,,,,,,,,,,84.15,1.17866666666667,,1.4848,0.0778,0.1556
2021-12-03 19:00:02+00:00,1638558002,13.13,,,,,,,,,,84.3666666666667,1.1817,,1.4848,0.0778,0.1556
2021-12-03 19:20:01+00:00,1638559201,13.17,,,,,,,,,,87.0266666666667,1.21893333333333,,1.4864,0.0695,0.139
2021-12-03 19:40:01+00:00,1638560401,13.24,,,,,,,,,,87.5333333333333,1.22606666666667,,1.4848,0.0528,0.1056
2021-12-03 20:00:01+00:00,1638561601,13.28,,,,,,,,,,87.1633333333333,1.2209,,1.4848,0.05,0.1
2021-12-03 20:20:02+00:00,1638562802,13.32,,,,,,,,,,87.21,1.2215,,1.4784,0.0221,0.0442
2021-12-03 21:00:01+00:00,1638565201,13.46,,,,,,,,,,85.6033333333333,1.19906666666667,,1.4768,0.0069,0.0138
2021-12-03 21:20:01+00:00,1638566401,13.46,,,,,,,,,,77.2466666666667,1.082,,1.4752,0.0621,0.1242
2021-12-03 21:40:01+00:00,1638567601,13.45,,,,,,,,,,77.4266666666667,1.08446666666667,,1.4704,-0.0866,-0.1732
2021-12-03 22:00:01+00:00,1638568801,13.93,,,,,,,,,,75.8933333333333,1.06306666666667,,1.4143,-0.5549,-1.1098
2021-12-03 22:20:02+00:00,1638570002,14.11,,,,,,,,,,72.8133333333333,1.0199,,1.3792,-0.5649,-1.1298
2021-12-03 22:40:01+00:00,1638571201,14.2,,,,,,,,,,67.3666666666667,0.9436,,1.3584,-0.5459,-1.0918
2021-12-03 23:00:02+00:00,1638572402,14.26,,,,,,,,,,61.29,0.858466666666667,,1.3408,-0.5722,-1.1444
2021-12-03 23:20:02+00:00,1638573602,14.3,,,,,,,,,,56.8833333333333,0.796766666666667,,1.3248,-0.5416,-1.0832
2021-12-03 23:40:02+00:00,1638574802,14.3,,,,,,,,,,52.8366666666667,0.740033333333333,,1.312,-0.5154,-1.0308
2021-12-04 00:00:02+00:00,1638576002,14.28,,,,,,,,,,52.97,0.741933333333333,,1.3008,-0.5072,-1.0144
2021-12-04 00:20:02+00:00,1638577202,14.27,,,,,,,,,,52.6833333333333,0.737833333333333,,1.2848,-0.4875,-0.975
2021-12-04 00:40:01+00:00,1638578401,14.27,,,,,,,,,,52.7566666666667,0.7389,,1.2784,-0.5028,-1.0056
2021-12-04 01:00:01+00:00,1638579601,14.28,,,,,,,,,,53.2066666666667,0.745233333333333,,1.264,-0.4874,-0.9748
2021-12-04 01:20:01+00:00,1638580801,14.28,,,,,,,,,,53.52,0.749633333333333,,1.2576,-0.4837,-0.9674
2021-12-04 01:40:02+00:00,1638582002,14.26,,,,,,,,,,53.6266666666667,0.751133333333333,,1.2447,-0.4646,-0.9292
2021-12-04 02:00:01+00:00,1638583201,14.23,,,,,,,,,,54.09,0.7576,,1.2432,-0.3924,-0.7848
2021-12-04 02:20:02+00:00,1638584402,14.19,,,,,,,,,,54.5066666666667,0.763433333333333,,1.2832,-0.0799,-0.1598
2021-12-04 02:40:02+00:00,1638585602,14.17,,,,,,,,,,54.63,0.765166666666667,,1.3056,-0.0704,-0.1408
2021-12-04 03:00:02+00:00,1638586802,14.12,,,,,,,,,,54.4033333333333,0.762,,1.3216,-0.0283,-0.0566
2021-12-04 03:20:01+00:00,1638588001,14.06,,,,,,,,,,54.4233333333333,0.7623,,1.336,-0.0572,-0.1144
2021-12-04 03:40:02+00:00,1638589202,14.12,,,,,,,,,,54.3433333333333,0.761166666666667,,1.3424,0.0325,0.065
2021-12-04 04:00:01+00:00,1638590401,14.12,,,,,,,,,,55.8833333333333,0.7827,,1.352,-0.0138,-0.0276
2021-12-04 04:20:01+00:00,1638591601,14.14,,,,,,,,,,57.7733333333333,0.809266666666667,,1.3568,0.0303,0.0606
2021-12-04 04:40:02+00:00,1638592802,14.14,,,,,,,,,,55.8366666666667,0.782133333333333,,1.36,0.0063,0.0126
2021-12-04 05:00:01+00:00,1638594001,14.11,,,,,,,,,,57.62,0.8071,,1.3616,0.0723,0.1446
2021-12-04 05:20:01+00:00,1638595201,14.07,,,,,,,,,,60.32,0.8449,,1.3616,0.0368,0.0736
2021-12-04 05:40:01+00:00,1638596401,14.08,,,,,,,,,,61.7266666666667,0.864566666666667,,1.3616,0.0444,0.0888
2021-12-04 06:00:01+00:00,1638597601,14.09,,,,,,,,,,61.4266666666667,0.860366666666667,,1.3632,0.0432,0.0864
2021-12-04 06:20:02+00:00,1638598802,14.09,,,,,,,,,,59.6733333333333,0.8358,,1.3648,0.0572,0.1144
2021-12-04 06:40:01+00:00,1638600001,14.08,,,,,,,,,,60.6033333333333,0.848833333333333,,1.3696,0.0626,0.1252
2021-12-04 07:00:02+00:00,1638601202,14.08,,,,,,,,,,55.47,0.776933333333333,,1.3696,0.0217,0.0434
2021-12-04 07:20:01+00:00,1638602401,14.08,,,,,,,,,,54.3933333333333,0.761833333333333,,1.3728,0.0345,0.069